Sequan Truck Trail (1166, 625) Station Data

Red Flag Warning: No
Fire Weather Zone: 250
SDGE Region: Eastern
Lat/Lon: 32.798/-116.779

Observations

Time Wind Speed/Gust Temp(F) RH Fuel Moist Fuel Temp(F) Dewpt(F) Tmax(F) Tmin(F) Accum Precip 10-min Precip SL Press(mb)
6/22 5:00am 58 4 G 6 71° 44% - - 48° 74.2° 66.4° - - -
6/22 4:50am 73 3 G 5 72° 45% - - 49° 74.2° 66.4° - - -
6/22 4:40am 77 4 G 5 73° 42% - - 49° 74.2° 66.4° - - -
6/22 4:30am 77 4 G 6 71° 49% - - 51° 74.2° 66.4° - - -
6/22 4:20am 84 4 G 5 69° 55% - - 52° 74.2° 66.4° - - -
6/22 4:10am 101 3 G 5 68° 59% - - 53° 74.2° 66.4° - - -
6/22 4:00am 125 2 G 4 69° 62% - - 55° 74.2° 67.2° - - -
6/22 3:50am 342 0 G 1 69° 58% - - 53° 74.2° 67.5° - - -
6/22 3:40am 323 1 G 2 69° 58% - - 53° 74.2° 67.5° - - -
6/22 3:30am 328 1 G 2 69° 60% - - 54° 74.2° 67.5° - - -
6/22 3:20am 74 2 G 2 68° 63% - - 55° 74.2° 67.5° - - -
6/22 3:10am 91 1 G 2 68° 64% - - 55° 74.2° 67.6° - - -
6/22 3:00am 72 2 G 3 69° 59% - - 55° 74.2° 68° - - -
6/22 2:50am 78 3 G 5 70° 60% - - 55° 74.2° 68° - - -
6/22 2:40am 62 4 G 6 70° 61% - - 56° 74.2° 68° - - -
6/22 2:30am 71 6 G 8 70° 62% - - 56° 74.2° 68° - - -
6/22 2:20am 71 6 G 8 70° 63% - - 57° 74.2° 68° - - -
6/22 2:10am 77 7 G 8 70° 64% - - 58° 74.2° 68° - - -
6/22 2:00am 83 6 G 8 70° 66% - - 58° 74.2° 68° - - -
6/22 1:50am 102 4 G 5 69° 69% - - 59° 74.2° 68° - - -
6/22 1:40am 96 2 G 3 69° 72% - - 59° 74.2° 68° - - -
6/22 1:30am 159 1 G 2 68° 73% - - 59° 74.2° 68° - - -
6/22 1:20am 201 1 G 2 68° 73% - - 60° 74.2° 68° - - -
6/22 1:10am 221 1 G 2 69° 72% - - 60° 74.2° 68.3° - - -
6/22 1:00am 236 0 G 2 71° 67% - - 59° 74.2° 69.7° - - -
6/22 12:50am 272 1 G 2 72° 62% - - 59° 74.2° 71° - - -
6/22 12:40am 323 2 G 4 72° 63% - - 59° 74.2° 71° - - -
6/22 12:30am 9 3 G 4 72° 66% - - 60° 74.2° 71° - - -
6/22 12:20am 33 4 G 5 72° 65% - - 60° 74.2° 71.2° - - -
6/22 12:10am 58 4 G 6 73° 63% - - 60° 74.2° 72.7° - - -
6/22 12:00am 82 5 G 7 74° 63% - - 60° 97.2° 71.3° - - -
6/21 11:50pm 77 6 G 7 73° 64% - - 60° 97.2° 71.3° - - -
6/21 11:40pm 69 5 G 6 72° 66% - - 60° 97.2° 71.3° - - -
6/21 11:30pm 69 3 G 4 72° 66% - - 60° 97.2° 71.3° - - -
6/21 11:20pm 69 3 G 4 73° 65% - - 60° 97.2° 71.3° - - -
6/21 11:10pm 89 2 G 3 73° 64% - - 60° 97.2° 71.3° - - -
6/21 11:00pm 95 2 G 3 73° 65% - - 60° 97.2° 71.3° - - -
6/21 10:50pm 140 1 G 2 72° 66% - - 60° 97.2° 71.3° - - -
6/21 10:40pm 116 3 G 3 72° 65% - - 60° 97.2° 71.3° - - -
6/21 10:30pm 117 2 G 3 72° 66% - - 60° 97.2° 71.3° - - -
6/21 10:20pm 112 1 G 2 72° 65% - - 60° 97.2° 71.5° - - -
6/21 10:10pm 81 0 G 0 73° 64% - - 60° 97.2° 72.5° - - -
6/21 10:00pm 306 1 G 1 73° 64% - - 60° 97.2° 72.5° - - -
6/21 9:50pm 317 0 G 1 73° 64% - - 60° 97.2° 72.6° - - -
6/21 9:40pm 92 0 G 1 74° 63% - - 60° 97.2° 73.2° - - -
6/21 9:30pm 0 0 G 0 74° 62% - - 60° 97.2° 73.5° - - -
6/21 9:20pm 322 0 G 1 74° 61% - - 60° 97.2° 74° - - -
6/21 9:10pm 316 0 G 1 75° 60% - - 60° 97.2° 74.4° - - -
6/21 9:00pm 226 0 G 2 76° 58% - - 60° 97.2° 75.3° - - -
6/21 8:50pm 294 1 G 3 76° 59% - - 60° 97.2° 75.3° - - -
6/21 8:40pm 311 1 G 3 77° 57% - - 61° 97.2° 76.2° - - -
6/21 8:30pm 130 0 G 1 77° 57% - - 61° 97.2° 76.7° - - -
6/21 8:20pm 137 1 G 3 78° 55% - - 61° 97.2° 77.2° - - -
6/21 8:10pm 271 2 G 4 78° 55% - - 61° 97.2° 77.4° - - -
6/21 8:00pm 263 3 G 4 78° 55% - - 61° 97.2° 77.5° - - -
6/21 7:50pm 290 3 G 4 78° 54% - - 61° 97.2° 77.7° - - -
6/21 7:40pm 282 3 G 4 79° 54% - - 61° 97.2° 78° - - -
6/21 7:30pm 285 3 G 5 79° 53% - - 61° 97.2° 78° - - -
6/21 7:20pm 299 2 G 3 80° 53% - - 61° 97.2° 78° - - -
6/21 7:10pm 310 2 G 5 81° 51% - - 61° 97.2° 78° - - -
6/21 7:00pm 312 3 G 5 82° 50% - - 61° 97.2° 78° - - -
6/21 6:50pm 213 2 G 4 82° 49% - - 61° 97.2° 78° - - -
6/21 6:40pm 223 2 G 4 83° 48% - - 61° 97.2° 78° - - -
6/21 6:30pm 274 3 G 7 84° 47% - - 61° 97.2° 78° - - -
6/21 6:20pm 277 5 G 8 84° 47% - - 61° 97.2° 78° - - -
6/21 6:10pm 287 6 G 9 84° 46% - - 61° 97.2° 78° - - -
6/21 6:00pm 287 7 G 10 85° 45% - - 61° 97.2° 78° - - -
6/21 5:50pm 282 8 G 12 86° 43% - - 61° 97.2° 78° - - -
6/21 5:40pm 282 7 G 10 87° 42% - - 61° 97.2° 78° - - -
6/21 5:30pm 290 7 G 10 86° 43% - - 61° 97.2° 78° - - -
6/21 5:20pm 307 6 G 10 87° 43% - - 61° 97.2° 78° - - -
6/21 5:10pm 301 6 G 10 87° 42% - - 61° 97.2° 78° - - -
6/21 5:00pm 290 8 G 11 87° 42% - - 61° 97.2° 78° - - -
6/21 4:50pm 289 8 G 12 87° 42% - - 61° 97.2° 78° - - -
6/21 4:40pm 293 8 G 12 87° 41% - - 61° 97.2° 78° - - -
6/21 4:30pm 299 8 G 12 88° 40% - - 61° 97.2° 78° - - -
6/21 4:20pm 299 8 G 13 88° 40% - - 61° 97.2° 78° - - -
6/21 4:10pm 302 8 G 12 88° 40% - - 61° 97.2° 78° - - -
6/21 4:00pm 289 8 G 13 88° 40% - - 61° 97.2° 78° - - -
6/21 3:50pm 291 9 G 15 89° 40% - - 61° 97.2° 78° - - -
6/21 3:40pm 294 8 G 12 89° 39% - - 61° 97.2° 78° - - -
6/21 3:30pm 302 8 G 11 90° 38% - - 61° 97.2° 78° - - -
6/21 3:20pm 296 7 G 13 90° 38% - - 61° 97.2° 78° - - -
6/21 3:10pm 298 8 G 12 90° 37% - - 61° 97.2° 78° - - -
6/21 3:00pm 301 8 G 13 91° 37% - - 61° 97.2° 78° - - -
6/21 2:50pm 284 7 G 13 92° 35% - - 61° 97.2° 78° - - -
6/21 2:40pm 294 7 G 11 93° 35% - - 61° 97.2° 78° - - -
6/21 2:30pm 278 5 G 11 93° 35% - - 61° 97.2° 78° - - -
6/21 2:20pm 245 9 G 14 92° 35% - - 60° 97.2° 78° - - -
6/21 2:10pm 248 7 G 14 92° 35% - - 61° 97.2° 78° - - -
6/21 2:00pm 245 10 G 15 91° 35% - - 60° 97.2° 78° - - -
6/21 1:50pm 258 10 G 16 92° 34% - - 60° 97.2° 78° - - -
6/21 1:40pm 255 8 G 16 95° 32% - - 60° 97.2° 78° - - -
6/21 1:30pm 275 5 G 12 96° 30% - - 60° 97.2° 78° - - -
6/21 1:20pm 294 7 G 14 94° 32% - - 60° 97° 78° - - -
6/21 1:10pm 291 5 G 11 96° 31% - - 60° 97° 78° - - -
6/21 1:00pm 267 5 G 11 95° 32% - - 60° 96.1° 78° - - -
6/21 12:50pm 249 5 G 11 95° 32% - - 60° 96.1° 78° - - -
6/21 12:40pm 279 5 G 12 94° 34% - - 61° 96.1° 78° - - -
6/21 12:30pm 299 8 G 12 92° 34% - - 60° 95.2° 78° - - -
6/21 12:20pm 286 7 G 12 93° 34% - - 60° 95.2° 78° - - -
6/21 12:10pm 247 7 G 13 92° 33% - - 59° 95.2° 78° - - -
6/21 12:00pm 237 8 G 14 92° 33% - - 59° 95.2° 78° - - -
6/21 11:50am 247 6 G 13 93° 32% - - 59° 95.2° 78° - - -
6/21 11:40am 282 6 G 11 93° 32% - - 59° 95.2° 78° - - -
6/21 11:30am 293 5 G 10 93° 32% - - 59° 95.2° 78° - - -
6/21 11:20am 293 6 G 11 93° 32% - - 58° 95.2° 78° - - -
6/21 11:10am 272 3 G 8 94° 30% - - 58° 95.2° 78° - - -
6/21 11:00am 296 5 G 10 92° 31% - - 57° 93.3° 78° - - -
6/21 10:50am 255 3 G 9 92° 31% - - 57° 93.2° 78° - - -
6/21 10:40am 292 3 G 7 91° 31% - - 57° 92.6° 78° - - -
6/21 10:30am 239 2 G 6 91° 31% - - 56° 92.4° 78° - - -
6/21 10:20am 264 2 G 6 91° 31% - - 56° 92.4° 78° - - -
6/21 10:10am 308 4 G 8 90° 32% - - 56° 90.8° 78° - - -
6/21 10:00am 314 3 G 7 89° 32% - - 55° 89.8° 78° - - -
6/21 9:50am 300 3 G 7 88° 33% - - 55° 89.2° 78° - - -
6/21 9:40am 327 4 G 6 88° 32% - - 54° 89.2° 78° - - -
6/21 9:30am 307 3 G 6 88° 32% - - 54° 89.2° 78° - - -
6/21 9:20am 315 3 G 5 87° 32% - - 54° 89.2° 78° - - -
6/21 9:10am 317 3 G 4 88° 31% - - 54° 89.2° 78° - - -
6/21 9:00am 292 2 G 4 88° 31% - - 53° 88.5° 78° - - -
6/21 8:50am 324 2 G 4 86° 32% - - 53° 88.4° 78° - - -
6/21 8:40am 6 2 G 4 86° 34% - - 54° 88.4° 78° - - -
6/21 8:30am 348 1 G 2 87° 33% - - 54° 88.4° 78° - - -
6/21 8:20am 66 0 G 1 88° 30% - - 52° 88.4° 78° - - -
6/21 8:10am 87 0 G 2 87° 29% - - 50° 87.4° 78° - - -
6/21 8:00am 36 1 G 2 86° 28% - - 49° 87.2° 78° - - -
6/21 7:50am 56 1 G 2 85° 26% - - 46° 86.4° 78° - - -
6/21 7:40am 105 3 G 4 82° 27% - - 45° 83.9° 78° - - -
6/21 7:30am 94 3 G 4 82° 27% - - 45° 83.9° 78° - - -
6/21 7:20am 55 2 G 4 81° 28% - - 45° 83.9° 78° - - -
6/21 7:10am 63 3 G 5 81° 27% - - 44° 83.9° 78° - - -
6/21 7:00am 78 4 G 6 81° 27% - - 43° 83.9° 78° - - -
6/21 6:50am 83 5 G 7 81° 26% - - 43° 83.9° 78° - - -
6/21 6:40am 93 6 G 7 81° 27% - - 44° 83.9° 78° - - -
6/21 6:30am 98 5 G 6 80° 29% - - 45° 83.9° 78° - - -
6/21 6:20am 98 6 G 7 80° 31% - - 46° 83.9° 78° - - -
6/21 6:10am 92 6 G 8 80° 31% - - 46° 83.9° 78° - - -
6/21 6:00am 93 6 G 7 79° 32% - - 47° 83.9° 78° - - -
6/21 5:50am 85 6 G 7 79° 32% - - 47° 83.9° 78° - - -
6/21 5:40am 86 7 G 8 79° 33% - - 47° 83.9° 78° - - -
6/21 5:30am 85 6 G 8 79° 35% - - 49° 83.9° 78.1° - - -
6/21 5:20am 79 8 G 9 80° 34% - - 49° 83.9° 78.1° - - -
6/21 5:10am 72 7 G 9 80° 36% - - 50° 83.9° 78.1° - - -
6/21 5:00am 76 7 G 10 81° 36% - - 51° 83.9° 78.1° - - -
6/21 4:50am 87 7 G 10 80° 36% - - 51° 83.9° 78.1° - - -
6/21 4:40am 88 7 G 9 80° 36% - - 50° 83.9° 78.1° - - -
6/21 4:30am 79 6 G 9 81° 35% - - 51° 83.9° 78.6° - - -
6/21 4:20am 83 6 G 8 81° 35% - - 50° 83.9° 78.6° - - -
6/21 4:10am 83 7 G 8 81° 35% - - 51° 83.9° 78.6° - - -
6/21 4:00am 88 6 G 9 80° 36% - - 50° 83.9° 78.6° - - -
6/21 3:50am 86 5 G 8 81° 34% - - 51° 83.9° 78.6° - - -
6/21 3:40am 83 7 G 9 80° 36% - - 51° 83.9° 78.6° - - -
6/21 3:30am 80 8 G 10 79° 36% - - 50° 83.9° 78.6° - - -
6/21 3:20am 81 7 G 9 80° 36% - - 50° 83.9° 78.6° - - -
6/21 3:10am 90 7 G 8 81° 34% - - 50° 83.9° 78.6° - - -
6/21 3:00am 86 6 G 9 80° 35% - - 50° 83.9° 78.6° - - -
6/21 2:50am 84 7 G 9 82° 33% - - 50° 83.9° 78.8° - - -
6/21 2:40am 87 7 G 9 80° 34% - - 49° 83.9° 78.8° - - -
6/21 2:30am 88 7 G 9 81° 33% - - 49° 83.9° 78.9° - - -
6/21 2:20am 91 7 G 10 81° 33% - - 49° 83.9° 78.9° - - -
6/21 2:10am 94 7 G 10 80° 34% - - 49° 83.9° 78.9° - - -
6/21 2:00am 73 5 G 8 81° 33% - - 50° 83.9° 79.3° - - -
6/21 1:50am 80 6 G 8 82° 33% - - 50° 83.9° 79.3° - - -
6/21 1:40am 81 5 G 7 82° 32% - - 50° 83.9° 79.3° - - -
6/21 1:30am 90 6 G 8 82° 33% - - 50° 83.9° 79.3° - - -
6/21 1:20am 83 6 G 9 83° 33% - - 51° 83.9° 79.3° - - -
6/21 1:10am 86 7 G 9 81° 34% - - 51° 83.9° 79.3° - - -
6/21 1:00am 89 6 G 8 81° 36% - - 51° 83.9° 79.3° - - -
6/21 12:50am 88 7 G 10 82° 35% - - 52° 83.9° 79.5° - - -
6/21 12:40am 78 6 G 8 83° 35% - - 52° 83.6° 80.4° - - -
6/21 12:30am 82 6 G 8 82° 35% - - 52° 83° 80.4° - - -
6/21 12:20am 85 6 G 8 81° 37% - - 52° 82.4° 80.4° - - -
6/21 12:10am 91 5 G 8 81° 37% - - 53° 82.1° 80.7° - - -
6/21 12:00am 85 6 G 7 82° 37% - - 53° 97.6° 73.7° - - -
6/20 11:50pm 89 5 G 7 82° 38% - - 54° 97.6° 73.7° - - -
6/20 11:40pm 62 4 G 7 82° 38% - - 54° 97.6° 73.7° - - -
6/20 11:30pm 80 3 G 5 84° 37% - - 55° 97.6° 73.7° - - -
6/20 11:20pm 87 5 G 7 84° 38% - - 55° 97.6° 73.7° - - -
6/20 11:10pm 94 5 G 6 84° 38% - - 55° 97.6° 73.7° - - -
6/20 11:00pm 88 6 G 9 82° 40% - - 55° 97.6° 73.7° - - -
6/20 10:50pm 93 6 G 8 82° 40% - - 56° 97.6° 73.7° - - -
6/20 10:40pm 87 6 G 8 82° 41% - - 56° 97.6° 73.7° - - -
6/20 10:30pm 82 6 G 7 82° 42% - - 56° 97.6° 73.7° - - -
6/20 10:20pm 74 6 G 8 81° 42% - - 56° 97.6° 73.7° - - -
6/20 10:10pm 75 6 G 8 84° 40% - - 57° 97.6° 73.7° - - -
6/20 10:00pm 83 6 G 9 82° 43% - - 57° 97.6° 73.7° - - -
6/20 9:50pm 80 5 G 9 83° 41% - - 57° 97.6° 73.7° - - -
6/20 9:40pm 89 4 G 7 83° 42% - - 57° 97.6° 73.7° - - -
6/20 9:30pm 79 3 G 5 83° 41% - - 57° 97.6° 73.7° - - -
6/20 9:20pm 90 2 G 5 83° 41% - - 57° 97.6° 73.7° - - -
6/20 9:10pm 96 3 G 4 83° 42% - - 57° 97.6° 73.7° - - -
6/20 9:00pm 81 2 G 2 83° 41% - - 57° 97.6° 73.7° - - -
6/20 8:50pm 84 2 G 4 83° 40% - - 57° 97.6° 73.7° - - -
6/20 8:40pm 75 3 G 4 83° 41% - - 57° 97.6° 73.7° - - -
6/20 8:30pm 137 2 G 2 84° 40% - - 57° 97.6° 73.7° - - -
6/20 8:20pm 179 1 G 3 84° 40% - - 57° 97.6° 73.7° - - -
6/20 8:10pm 216 1 G 2 84° 40% - - 57° 97.6° 73.7° - - -
6/20 8:00pm 211 1 G 2 84° 40% - - 57° 97.6° 73.7° - - -
6/20 7:50pm 249 1 G 2 84° 40% - - 58° 97.6° 73.7° - - -
6/20 7:40pm 251 2 G 3 85° 40% - - 58° 97.6° 73.7° - - -
6/20 7:30pm 260 3 G 4 85° 39% - - 58° 97.6° 73.7° - - -
6/20 7:20pm 209 2 G 4 86° 39% - - 58° 97.6° 73.7° - - -
6/20 7:10pm 261 2 G 4 87° 37% - - 58° 97.6° 73.7° - - -
6/20 7:00pm 250 3 G 5 87° 37% - - 58° 97.6° 73.7° - - -
6/20 6:50pm 218 4 G 7 87° 37% - - 57° 97.6° 73.7° - - -
6/20 6:40pm 244 4 G 7 88° 36% - - 57° 97.6° 73.7° - - -
6/20 6:30pm 249 5 G 9 88° 36% - - 57° 97.6° 73.7° - - -
6/20 6:20pm 231 6 G 8 88° 34% - - 57° 97.6° 73.7° - - -
6/20 6:10pm 235 6 G 10 89° 34% - - 57° 97.6° 73.7° - - -
6/20 6:00pm 248 5 G 10 89° 34% - - 57° 97.6° 73.7° - - -